x

Buoy B01 - Western Maine Shelf (44030) Wave Buoy

5:04am - Tue 21st Nov 2017 All times are EST. -5 hours from GMT.

  • Sig Wave height 3.0ft
  • Peak Period 4s
  • Wind
    20mph, 22mph gusts
  • Sea Temp 49°f
  • Air Temp 43°f
  • Sea Pressure 1018.7mb
  • Buoy B01 - Western Maine Shelf
  • Buoy B01 - Western Maine Shelf

More Historic Weather Station data

Upgrade to MSW Pro to gain access to the past 30 days of data for over 8000 Wavebouys and Weather Stations around the globe.

Join

Comparision Forecast

View Surf forecast
   
Tue 11/21 5:04am 3ft 4s 20 22 mph 1018.7mb 49f 43f
3:04am 2.5ft 3s 20 22 mph 1018.3mb 49f 43f
2:04am 2.5ft 4s 20 25 mph 1018.7mb 49f 43f
1:04am 2.5ft 4s 20 25 mph 1017.8mb 49f 42f
12:04am 2ft 4s 9 11 mph 1017.5mb 49f 38f
Mon 11/20 11:04pm 2.5ft 4s 11 13 mph 1017.4mb 49f 39f
10:04pm 2.5ft 4s 11 13 mph 1016.9mb 49f 38f
9:04pm 2.5ft 4s 20 25 mph 1015.8mb 49f 39f
8:04pm 2.5ft 4s 18 25 mph 1015.3mb 49f 40f
7:04pm 3.5ft 4s 22 27 mph 1014.2mb 49f 41f
6:04pm 3ft 4s 22 27 mph 1013.6mb 49f 40f
5:04pm 3ft 4s 22 27 mph 1012.9mb 49f 41f
4:04pm 3ft 3s 25 31 mph 1012mb 49f 41f
3:04pm 3.5ft 4s 20 25 mph 1011.5mb 49f 40f
2:04pm 3.5ft 4s 25 31 mph 1010.5mb 49f 40f
1:04pm 3.5ft 4s 27 36 mph 1010.2mb 49f 40f
11:04am 4ft 4s 29 34 mph 1010.1mb 49f 37f
10:04am 3.5ft 4s 25 29 mph 1010mb 49f 37f
9:04am 2.5ft 3s 27 34 mph 1009.5mb 49f 37f
8:04am 2.5ft 3s 20 27 mph 1009.2mb 49f 36f
7:04am  -   -  18 22 mph 1008.9mb 49f 36f
6:04am 4ft 11s 18 22 mph 1007.8mb 49f 36f
5:04am  -   -  22 29 mph 1006.7mb 49f 37f
3:04am 2.5ft 3s 22 27 mph 1004.8mb 49f 38f
2:04am 2.5ft 3s 22 27 mph 1003.9mb 49f 38f
12:04am 3.5ft 4s 22 31 mph 1002.4mb 49f 39f
Sun 11/19 11:04pm 3.5ft 4s 29 38 mph 1001.3mb 49f 39f
10:04pm 3.5ft 4s 27 34 mph 1001.2mb 49f 39f
9:04pm 3.5ft 4s 27 36 mph 1000.6mb 49f 40f
8:04pm 3.5ft 4s 29 36 mph 999.4mb 49f 40f
7:04pm 3.5ft 4s 29 34 mph 997.8mb 49f 41f
6:04pm 5ft 4s 27 31 mph 996.8mb 49f 42f
5:04pm 5ft 4s 31 36 mph 994.8mb 49f 43f
4:04pm 6ft 4s 31 40 mph 992.6mb 50f 45f
3:04pm 6ft 4s 31 38 mph 989.8mb 50f 47f
2:04pm 6.5ft 6s 31 38 mph 987.5mb 49f 49f
1:04pm 6ft 6s 31 38 mph 985.4mb 50f 51f
12:04pm 6ft 6s 20 25 mph 984.3mb 50f 53f
11:04am 6ft 6s 22 27 mph 984.7mb 49f 53f
10:04am 6ft 6s 20 25 mph 985.8mb 49f 53f
9:04am 5ft 5s 20 22 mph 987.2mb 49f 53f
8:04am 4.5ft 5s 22 27 mph 988mb 49f 53f
7:04am 4.5ft 5s 20 22 mph 988.6mb 49f 53f
6:04am 4.5ft 5s 20 22 mph 989.4mb 49f 53f
5:04am 4ft 5s 18 22 mph 991.1mb 49f 53f
3:04am 3.5ft 5s 16 22 mph 994mb 49f 51f
2:04am 3.5ft 5s 13 16 mph 996mb 49f 51f
1:04am 3.5ft 5s 16 20 mph 997mb 49f 51f
12:04am 3ft 5s 18 27 mph 998.5mb 49f 52f
Sat 11/18 11:04pm 3.5ft 5s 13 16 mph 999.5mb 49f 51f
10:04pm 3.5ft 4s 20 25 mph 1001mb 49f 51f
9:04pm 3.5ft 4s 18 22 mph 1002.5mb 49f 50f
8:04pm 2.5ft 4s 18 22 mph 1003.8mb 49f 49f
7:04pm 2.5ft 4s 18 20 mph 1005.4mb 49f 48f
6:04pm 2.5ft 4s 16 18 mph 1006.7mb 49f 47f
5:04pm 2.5ft 4s 13 16 mph 1007.1mb 49f 46f
4:04pm 2ft 4s 13 18 mph 1008.2mb 49f 45f
3:04pm 2ft 3s 16 18 mph 1008.5mb 49f 45f
2:04pm 1ft 2s 13 18 mph 1009.5mb 49f 43f
1:04pm 1ft 11s 11 13 mph 1010.4mb 49f 40f
12:04pm 1.3ft 11s 9 11 mph 1011.2mb 49f 39f
11:04am 0.3ft  -  7 9 mph 1012.5mb 49f 38f
10:04am  -   -  4 9 mph 1014mb 49f 37f
9:04am  -   -  4 7 mph 1014.4mb 49f 37f
8:04am 0.7ft  -  2 2 mph 1014.9mb 49f 37f
7:04am 1ft 2s 2 4 mph 1014.5mb 49f 35f
6:04am 1ft 2s 9 11 mph 1015mb 49f 33f
5:04am 1.3ft 2s 13 18 mph 1015.1mb 49f 33f
3:04am 1.6ft 3s 16 18 mph 1014.6mb 49f 34f
2:04am 2ft 3s 18 20 mph 1015.4mb 49f 34f
1:04am 2ft 3s 18 20 mph 1015mb 49f 34f
12:04am 2ft 3s 16 18 mph 1015mb 49f 34f
Fri 11/17 10:04pm 2ft 3s 20 25 mph 1015.3mb 49f 34f
9:04pm 2.5ft 3s 18 22 mph 1015mb 49f 34f
8:04pm 2.5ft 4s 25 29 mph 1014.9mb 49f 35f
7:04pm 2.5ft 4s 22 29 mph 1014.2mb 50f 36f
6:04pm 2.5ft 3s 22 27 mph 1013.9mb 50f 37f
5:04pm 2.5ft 3s 22 31 mph 1013.3mb 50f 38f
4:04pm 3.5ft 4s 22 25 mph 1012.6mb 50f 38f
3:04pm 3ft 4s 27 31 mph 1011.1mb 50f 40f
2:04pm 3ft 4s 25 29 mph 1010.4mb 50f 40f
12:04pm 4.5ft 4s 27 31 mph 1009.7mb 50f 40f